Stations météo

réclame
Mon MeteoGroup
Marseille/Marignane, France (7650): Température de l'air & dewpoint: 17.09.2017 21:00:00 - 23.09.2017 21:00:00 (CEST)Marseille/Marignane, France (7650): Température de l'air 5cm: 17.09.2017 21:00:00 - 23.09.2017 21:00:00 (CEST)Marseille/Marignane, France (7650): Température de l'air -20cm & Température de l'air -100cm: 17.09.2017 21:00:00 - 23.09.2017 21:00:00 (CEST)Marseille/Marignane, France (7650): Vitesse du vent & gusts: 17.09.2017 21:00:00 - 23.09.2017 21:00:00 (CEST)Marseille/Marignane, France (7650): Direction du vent: 17.09.2017 21:00:00 - 23.09.2017 21:00:00 (CEST)Marseille/Marignane, France (7650): reduced air pressure: 17.09.2017 21:00:00 - 23.09.2017 21:00:00 (CEST)Marseille/Marignane, France (7650): visibility: 17.09.2017 21:00:00 - 23.09.2017 21:00:00 (CEST)Marseille/Marignane, France (7650): Ensoleillement: 17.09.2017 21:00:00 - 23.09.2017 21:00:00 (CEST)Marseille/Marignane, France (7650): Quantités de précipitations: 17.09.2017 21:00:00 - 23.09.2017 21:00:00 (CEST)
Date & Time tt [°C] td [°C] tt 5cm [°C] tt -20cm [°C] tt -100cm [°C] ff [km/h] ff [knt] fx [km/h] fx [knt] dd ppp [hPa] vv [km] sd [min] rr [mm]
23.09.2017 21:00:00 18,3 15,4 16,9 23,0 20,8 5 3 13 7 SSE 1020,3 22 0 0,0
23.09.2017 20:00:00 19,0 15,5 18,3 23,3 20,8 8 4 20 11 S 1019,9 35 2 0,0
23.09.2017 19:00:00 20,8 14,7 21,9 23,4 20,8 15 8 24 13 S 1019,6 52 58 0,0
23.09.2017 18:00:00 22,5 14,1 26,2 23,2 20,8 18 10 25 14 S 1019,4 49 60 0,0
23.09.2017 17:00:00 23,3 13,5 28,6 22,7 20,8 13 7 23 12 S 1019,5 36 60 0,0
23.09.2017 16:00:00 24,2 14,3 28,8 22,1 20,8 11 6 19 10 WSW 1019,9 24 60 0,0
23.09.2017 15:00:00 23,9 14,6 25,7 21,4 20,8 12 7 16 9 W 1020,5 9 60 0,0
23.09.2017 14:00:00 21,6 14,3 23,8 20,9 20,8 13 7 16 9 W 1021,0 12 5 0,0
23.09.2017 13:00:00 22,0 14,4 25,5 20,1 20,8 13 7 17 9 W 1021,1 11 46 0,0
23.09.2017 12:00:00 21,9 14,8 22,6 19,5 20,8 9 5 13 7 W 1021,7 14 41 0,0
23.09.2017 11:00:00 20,3 15,1 21,2 19,2 20,8 7 4 10 5 W 1021,9 11 8 0,0
23.09.2017 10:00:00 18,6 15,1 18,8 19,1 20,8 5 3 11 6 W 1021,7 11 0 0,0
23.09.2017 09:00:00 17,8 14,5 17,3 19,1 20,8 0 0 6 3 N 1021,5 10 0 0,0
23.09.2017 08:00:00 17,0 14,6 15,4 19,2 20,8 0 0 6 4 N 1021,3 8 0 0,2
23.09.2017 07:00:00 17,1 14,9 15,9 19,3 20,8 0 0 5 3 N 1021,0 9 0 0,0
23.09.2017 06:00:00 17,3 14,6 16,4 19,4 20,8 3 1 9 5 N 1020,9 10 0 0,0
23.09.2017 05:00:00 16,5 14,9 15,4 19,6 20,8 8 4 11 6 E 1021,0 6 0 0,0
23.09.2017 04:00:00 16,1 14,6 14,4 19,8 20,8 7 4 9 5 SE 1021,4 3,1 0 0,0
23.09.2017 03:00:00 15,3 13,8 12,9 20,1 20,8 2 1 8 4 WSW 1021,9 6 0 0,0
23.09.2017 02:00:00 14,8 12,8 12,4 20,5 20,8 3 2 6 3 S 1022,1 4,8 0 0,0
23.09.2017 01:00:00 15,7 13,7 13,2 20,9 20,8 3 2 6 3 SE 1021,9 6 0 0,0
23.09.2017 00:00:00 16,0 13,7 13,9 21,3 20,8 3 2 6 4 SSE 1021,8 13 0 0,0
22.09.2017 23:00:00 17,6 15,6 13,9 21,7 20,9 3 2 5 3 NNW 1021,4 11 0 0,0
22.09.2017 22:00:00 17,9 15,7 14,8 22,1 20,9 0 0 7 4 N 1021,2 16 0 0,0
22.09.2017 21:00:00 18,5 15,7 16,1 22,5 20,9 0 0 12 7 N 1020,8 36 0 0,0
22.09.2017 20:00:00 19,2 16,2 18,5 22,8 20,8 11 6 17 9 S 1020,7 33 6 0,0
22.09.2017 19:00:00 20,4 16,0 20,9 22,8 20,9 13 7 22 12 S 1020,4 41 51 0,0
22.09.2017 18:00:00 21,7 16,0 24,7 22,6 20,8 18 10 27 15 S 1020,3 29 60 0,0
22.09.2017 17:00:00 21,8 16,1 25,3 22,3 20,9 18 10 25 13 S 1020,3 53 60 0,0
22.09.2017 16:00:00 22,9 16,4 25,3 21,7 20,9 19 11 26 14 S 1020,1 28 39 0,0
22.09.2017 15:00:00 23,5 15,0 27,9 20,9 20,9 10 5 15 8 W 1019,9 24 60 0,0
22.09.2017 14:00:00 22,7 14,5 27,0 20,1 20,9 8 4 15 8 W 1020,2 18 60 0,0
22.09.2017 13:00:00 22,7 14,5 25,5 19,3 20,9 10 5 14 7 W 1020,6 16 60 0,0
22.09.2017 12:00:00 21,3 13,5 23,1 18,6 20,9 10 6 14 7 W 1020,8 15 58 0,0
22.09.2017 11:00:00 20,0 13,5 21,4 18,1 20,9 11 6 14 7 W 1020,8 20 42 0,0
22.09.2017 10:00:00 18,4 13,3 20,2 17,9 20,9 5 3 8 5 WNW 1020,4 25 40 0,0
22.09.2017 09:00:00 17,2 13,1 15,2 18,0 20,9 2 1 8 4 N 1020,2 27 21 0,0
22.09.2017 08:00:00 15,9 12,1 13,2 18,1 20,9 3 1 7 4 S 1019,8 32 0 0,0
22.09.2017 07:00:00 15,0 11,8 10,9 18,3 20,9 3 2 5 3 SE 1019,5 24 0 0,0
22.09.2017 06:00:00 14,6 11,9 11,7 18,7 20,9 0 0 5 3 N 1019,2 25 0 0,0
22.09.2017 05:00:00 14,8 11,8 12,3 18,9 20,9 3 2 10 6 SSE 1019,2 26 0 0,0
22.09.2017 04:00:00 14,7 11,7 12,0 19,2 20,9 3 1 7 4 S 1019,4 27 0 0,0
22.09.2017 03:00:00 15,9 12,8 12,7 19,5 21,0 3 2 5 3 SSE 1019,8 27 0 0,0
22.09.2017 02:00:00 15,9 13,4 13,0 19,8 20,9 0 0 3 2 N 1020,0 20 0 0,0
22.09.2017 01:00:00 16,3 13,4 13,9 20,1 21,0 0 0 6 4 N 1019,8 33 0 0,0
22.09.2017 00:00:00 16,7 12,6 13,9 20,5 21,0 2 1 8 4 N 1019,5 36 0 0,0
21.09.2017 23:00:00 16,7 13,2 13,8 20,9 20,9 6 4 9 5 SE 1019,4 33 0 0,0
21.09.2017 22:00:00 18,1 13,8 14,8 21,3 21,0 7 4 12 6 N 1019,4 36 0 0,0
21.09.2017 21:00:00 18,4 13,9 15,0 21,7 21,0 3 1 9 5 SE 1019,0 52 0 0,0
21.09.2017 20:00:00 19,0 14,0 17,5 22,0 21,0 8 4 21 11 S 1018,5 59 17 0,0
21.09.2017 19:00:00 20,7 14,3 22,5 22,0 21,0 12 7 19 10 SSW 1018,2 48 60 0,0
21.09.2017 18:00:00 21,6 10,1 25,4 21,7 21,0 13 7 24 13 SSW 1018,0 50 60 0,0
21.09.2017 17:00:00 22,7 10,2 27,4 21,2 21,0 17 9 24 13 SSW 1017,9 48 60 0,0
21.09.2017 16:00:00 23,6 7,2 28,6 20,4 21,0 15 8 27 15 SSW 1018,0 42 60 0,0
21.09.2017 15:00:00 22,9 5,8 28,2 19,5 21,0 16 9 27 15 SSW 1018,3 42 60 0,0
21.09.2017 14:00:00 22,6 4,6 28,5 18,5 21,0 15 8 34 19 S 1018,6 47 60 0,0
21.09.2017 13:00:00 22,4 5,8 26,3 17,6 21,0 21 11 34 19 S 1018,7 51 60 0,0
21.09.2017 12:00:00 20,7 7,7 24,4 16,8 21,0 16 8 19 10 W 1018,9 20 60 0,0
21.09.2017 11:00:00 18,6 7,7 22,7 16,2 21,0 9 5 11 6 W 1018,9 42 60 0,0
21.09.2017 10:00:00 17,4 6,3 18,3 16,1 21,0 5 3 16 8 NNW 1018,7 39 60 0,0
21.09.2017 09:00:00 15,1 5,3 11,0 16,2 21,0 4 2 10 5 S 1018,5 33 60 0,0
21.09.2017 08:00:00 9,9 4,7 5,8 16,5 21,0 6 4 11 6 SE 1018,4 45 22 0,0
21.09.2017 07:00:00 8,1 4,1 5,8 16,9 21,1 9 5 16 9 SE 1018,2 51 0 0,0
21.09.2017 06:00:00 9,0 4,4 6,0 17,3 21,1 7 4 14 8 E 1018,0 59 0 0,0
21.09.2017 05:00:00 8,6 3,6 6,4 17,8 21,1 5 3 11 6 SE 1018,0 60 0 0,0
21.09.2017 04:00:00 10,6 5,1 7,1 18,2 21,0 4 2 13 7 ENE 1017,9 60 0 0,0
21.09.2017 03:00:00 12,1 5,5 8,0 18,6 21,1 9 5 16 9 E 1018,3 60 0 0,0
21.09.2017 02:00:00 11,9 4,8 8,3 19,1 21,1 8 5 10 6 NNW 1018,2 60 0 0,0
21.09.2017 01:00:00 13,1 5,5 11,4 19,5 21,1 7 4 22 12 NNW 1018,3 60 0 0,0
21.09.2017 00:00:00 14,9 6,5 13,2 19,9 21,1 13 7 18 10 WNW 1017,9 60 0 0,0
20.09.2017 23:00:00 16,8 5,7 14,5 20,4 21,1 12 6 29 16 WNW 1017,8 60 0 0,0
20.09.2017 22:00:00 17,1 6,0 15,3 20,8 21,1 10 5 31 17 WNW 1017,8 60 0 0,0
20.09.2017 21:00:00 18,6 6,1 17,6 21,2 21,1 21 11 31 17 NNW 1017,6 60 0 0,0
20.09.2017 20:00:00 19,3 6,7 18,5 21,5 21,1 26 14 35 19 WNW 1017,2 60 32 0,0
20.09.2017 19:00:00 21,2 5,1 22,3 21,5 21,1 25 14 34 19 NW 1017,0 49 60 0,0
20.09.2017 18:00:00 22,9 3,9 25,8 21,3 21,1 21 12 28 15 WNW 1016,6 57 60 0,0
20.09.2017 17:00:00 23,2 5,1 26,8 20,8 21,2 20 11 36 19 WNW 1016,6 40 60 0,0
20.09.2017 16:00:00 23,2 7,3 26,9 20,1 21,2 24 13 32 18 W 1016,8 39 60 0,0
20.09.2017 15:00:00 23,8 5,2 28,0 19,3 21,2 16 9 26 14 W 1017,0 40 60 0,0
20.09.2017 14:00:00 22,8 5,7 26,9 18,4 21,2 20 11 28 15 WNW 1017,3 42 60 0,0
20.09.2017 13:00:00 21,0 5,7 24,9 17,7 21,2 21 11 31 17 WNW 1017,6 46 60 0,0
20.09.2017 12:00:00 19,7 6,1 21,6 17,0 21,2 18 10 48 26 NW 1017,9 48 60 0,0
20.09.2017 11:00:00 17,7 6,5 19,2 16,7 21,2 27 15 40 21 NW 1017,9 19 60 0,0
20.09.2017 10:00:00 15,9 6,6 17,0 16,5 21,2 27 15 36 20 NW 1018,0 19 60 0,0
20.09.2017 09:00:00 14,4 6,5 13,8 16,6 21,2 18 10 34 18 WNW 1018,2 44 60 0,0
20.09.2017 08:00:00 13,3 6,6 12,0 16,8 21,2 20 11 36 19 NW 1018,1 50 22 0,0
20.09.2017 07:00:00 13,1 6,4 12,0 17,0 21,2 20 11 40 22 WNW 1018,1 60 0 0,0
20.09.2017 06:00:00 13,2 6,5 12,2 17,3 21,2 18 10 40 22 WNW 1018,0 60 0 0,0
20.09.2017 05:00:00 13,4 6,7 12,7 17,5 21,2 31 17 46 25 WNW 1018,2 60 0 0,0
20.09.2017 04:00:00 13,9 7,4 13,2 17,7 21,2 26 14 43 23 NW 1018,4 60 0 0,0
20.09.2017 03:00:00 14,1 7,2 13,4 17,9 21,3 23 12 46 25 NW 1018,6 60 0 0,0
20.09.2017 02:00:00 14,4 7,4 13,7 18,2 21,2 23 12 63 34 NW 1018,6 60 0 0,0
20.09.2017 01:00:00 14,8 7,1 14,3 18,4 21,2 44 24 71 39 NW 1018,0 60 0 0,0
20.09.2017 00:00:00 15,3 6,6 14,8 18,7 21,2 44 24 73 40 NW 1018,1 60 0 0,0
19.09.2017 23:00:00 15,9 6,3 15,4 18,9 21,3 46 25 69 37 NW 1018,5 60 0 0,0
19.09.2017 22:00:00 16,0 6,1 15,5 19,2 21,3 47 26 66 35 WNW 1018,5 60 0 0,0
19.09.2017 21:00:00 16,6 5,8 16,0 19,6 21,3 38 21 55 30 NW 1018,5 60 0 0,0
19.09.2017 20:00:00 17,5 5,4 16,8 19,7 21,3 34 19 71 39 NW 1018,3 60 31 0,0
19.09.2017 19:00:00 18,2 4,7 19,1 19,8 21,3 53 28 72 39 NW 1017,0 16 60 0,0
19.09.2017 18:00:00 19,6 5,3 21,7 19,7 21,3 52 28 71 38 NW 1016,5 17 60 0,0
19.09.2017 17:00:00 20,1 5,3 22,8 19,4 21,3 49 27 72 39 NW 1015,8 20 60 0,0
19.09.2017 16:00:00 20,2 4,6 21,6 19,0 21,3 48 26 71 38 NW 1016,0 17 47 0,0
19.09.2017 15:00:00 18,8 5,6 19,3 18,6 21,3 44 24 69 38 NW 1016,4 19 22 0,0
19.09.2017 14:00:00 18,4 5,9 19,4 18,2 21,3 47 25 66 36 NW 1016,8 11 24 0,0
19.09.2017 13:00:00 19,0 6,1 20,4 17,7 21,3 47 25 69 37 NW 1017,2 34 40 0,0
19.09.2017 12:00:00 18,5 5,7 19,2 17,2 21,3 42 23 63 34 NW 1017,4 19 47 0,0
19.09.2017 11:00:00 17,6 6,1 17,6 17,0 21,3 36 20 59 32 WNW 1017,6 52 39 0,0
19.09.2017 10:00:00 16,2 6,3 15,0 16,9 21,4 35 19 49 26 WNW 1017,8 57 2 0,0
19.09.2017 09:00:00 14,4 7,0 14,1 17,0 21,4 36 20 49 27 WNW 1017,6 41 39 0,0
19.09.2017 08:00:00 13,7 7,0 12,6 17,1 21,4 40 21 48 26 W 1017,4 24 23 0,0
19.09.2017 07:00:00 13,3 7,3 12,7 17,3 21,4 35 19 46 25 W 1017,2 60 0 0,0
19.09.2017 06:00:00 14,4 6,7 13,8 17,5 21,4 38 21 57 31 WNW 1016,9 60 0 0,0
19.09.2017 05:00:00 14,7 6,5 14,1 17,7 21,4 35 19 54 29 WNW 1016,6 60 0 0,0
19.09.2017 04:00:00 15,1 6,9 14,3 17,9 21,4 35 19 51 28 NW 1016,5 60 0 0,0
19.09.2017 03:00:00 15,6 6,3 15,0 18,1 21,4 35 19 54 29 NW 1016,8 60 0 0,0
19.09.2017 02:00:00 15,8 6,5 15,1 18,4 21,4 32 17 48 26 NW 1017,1 60 0 0,0
19.09.2017 01:00:00 16,1 6,2 14,2 18,7 21,4 35 19 46 25 NW 1016,6 60 0 0,0
19.09.2017 00:00:00 15,2 8,2 14,3 19,0 21,4 26 14 38 20 WNW 1017,0 60 0 0,0
18.09.2017 23:00:00 15,6 10,1 15,0 19,2 21,4 33 18 47 26 WNW 1016,8 60 0 0,0
18.09.2017 22:00:00 15,9 10,4 15,3 19,5 21,4 31 17 42 23 WNW 1016,6 60 0 0,0
18.09.2017 21:00:00 17,0 11,3 16,6 19,7 21,4 33 18 43 23 WNW 1016,1 60 0 0,0
18.09.2017 20:00:00 17,2 11,2 16,5 19,8 21,4 28 15 42 23 W 1015,4 60 0 0,0
18.09.2017 19:00:00 18,2 11,7 18,0 19,7 21,4 16 9 28 15 W 1015,1 59 53 0,0
18.09.2017 18:00:00 19,2 10,2 19,2 19,4 21,4 15 8 22 12 WSW 1014,9 60 25 0,0
18.09.2017 17:00:00 18,9 11,2 20,2 19,1 21,5 18 10 23 12 WSW 1015,2 38 26 0,0
18.09.2017 16:00:00 17,9 9,8 18,8 18,9 21,5 11 6 17 9 SW 1015,4 55 0 0,0
18.09.2017 15:00:00 17,0 10,1 17,7 18,8 21,5 12 6 17 9 SW 1016,3 60 0 0,0
18.09.2017 14:00:00 17,0 10,1 17,0 18,6 21,5 7 4 24 13 W 1016,5 44 0 0,0
18.09.2017 13:00:00 17,1 9,5 18,0 18,4 21,5 6 3 17 9 WSW 1017,1 18 0 0,0
18.09.2017 12:00:00 16,5 9,9 17,4 18,3 21,5 10 5 22 12 NNW 1017,3 55 0 0,0
18.09.2017 11:00:00 15,9 10,0 14,4 18,3 21,5 9 5 16 9 NNW 1017,4 20 0 0,0
18.09.2017 10:00:00 15,6 9,7 14,4 18,3 21,5 7 4 13 7 NW 1017,5 20 0 0,0
18.09.2017 09:00:00 15,7 9,4 15,4 18,4 21,5 8 5 13 7 NW 1016,8 52 0 0,0
18.09.2017 08:00:00 15,6 10,6 12,9 18,7 21,5 9 5 13 7 NW 1016,6 60 0 0,0
18.09.2017 07:00:00 14,1 9,1 12,7 18,9 21,5 0 0 12 7 N 1016,3 60 0 0,0
18.09.2017 06:00:00 13,4 9,1 11,8 19,2 21,5 10 5 12 7 ESE 1015,9 60 0 0,0
18.09.2017 05:00:00 15,2 9,5 11,6 19,4 21,5 4 2 16 9 NW 1016,3 60 0 0,0
18.09.2017 04:00:00 16,1 9,0 15,7 19,6 21,6 11 6 19 10 WNW 1016,8 60 0 0,0
18.09.2017 03:00:00 16,9 8,6 16,0 19,8 21,6 13 7 17 9 NW 1017,1 60 0 0,0
18.09.2017 02:00:00 16,9 10,7 16,1 20,0 21,6 8 4 14 7 WNW 1017,7 60 0 0,0
18.09.2017 01:00:00 17,1 11,6 16,4 20,2 21,6 5 3 16 9 NW 1018,1 60 0 0,0
18.09.2017 00:00:00 17,5 11,5 15,8 20,5 21,6 14 8 23 13 W 1018,3 60 0 0,0
17.09.2017 23:00:00 16,6 10,9 15,7 20,8 21,6 5 3 12 7 NW 1018,3 60 0 0,0
17.09.2017 22:00:00 16,8 10,6 16,1 21,1 21,6 5 3 16 9 S 1018,3 60 0 0,0
17.09.2017 21:00:00 17,0 10,8 16,4 21,4 21,6 10 5 19 11 SSW 1017,8 60 0 0,0

tt = Température de l'air
td = dewpoint
tt 5cm = Température de l'air 5cm
tt -20cm = Température de l'air -20cm
tt -100cm = Température de l'air -100cm
ff = Vitesse du vent
fx = gusts
dd = Direction du vent
ppp = reduced air pressure
vv = visibility
sd = Ensoleillement
rr = Quantités de précipitations

stations d'obs. à proximité